Preview of NWS' New Version of Forecast
This preview is not operational and should not be used for support decisions.

Regional Weather Roundup (RWR)

Issued by National Weather Service (NWS)

                            
000
ASUS43 KDMX 251701
RWRIA 

WEATHER ROUNDUP FOR IOWA
NATIONAL WEATHER SERVICE DES MOINES IA
1200 PM CDT THU APR 25 2019

NOTE: "FAIR" INDICATES FEW OR NO CLOUDS BELOW 12,000 FEET WITH NO
SIGNIFICANT WEATHER AND/OR OBSTRUCTIONS TO VISIBILITY.

* - THESE STATIONS ARE NOT NWS STATIONS...THUS NOT UNDER NWS
QUALITY CONTROL.  THEY ALSO DO NOT REPORT WEATHER SUCH 
AS PRECIPITATION OR FOG.  

IAZ001>003-012>014-020>022-031>034-043>046-251800-
   NORTHWEST IOWA
  
CITY           SKY/WX    TMP DP  RH WIND       PRES   REMARKS
CARROLL *      LGT RAIN  52  52 100 N20G26    29.90S                  
CHEROKEE *     CLOUDY    57  49  76 NE3       29.92R                  
DENISON *      PTSUNNY   54  50  87 NE20      29.91F                  
LE MARS *        N/A    N/A N/A N/A MISG        N/A                   
SHELDON *      MOSUNNY   61  57  88 NW13      29.91S                  
SIOUX CITY     PTSUNNY   61  48  62 N12       29.94R                  
SPENCER        MOSUNNY   60  48  64 NW7       29.90R                  
STORM LAKE *     N/A     54  50  87 NE12      29.87R                  
$$
 
IAZ055>058-069>071-079>083-090>094-251800-
   SOUTHWEST IOWA
  
CITY           SKY/WX    TMP DP  RH WIND       PRES   REMARKS
ATLANTIC *     CLOUDY    55  55 100 N20G32    29.88R                  
AUDUBON *      DRIZZLE   52  48  87 CALM      29.91R                  
CLARINDA *     CLOUDY    66  50  55 N28G35    29.84R                  
COUNCIL BLFS * CLOUDY    54  54 100 N15       29.91R                  
CRESTON *      MOSUNNY   66  50  55 N29       29.81R                  
HARLAN  *      LGT RAIN  52  50  93 N21G26    29.91R                  
LAMONI         SUNNY     68  52  56 NW12G17   29.77S                  
RED OAK *      CLOUDY    59  50  72 N24G32    29.88R                  
SHENANDOAH *   CLOUDY    63  52  67 N18G32    29.85R                  
$$
 
IAZ047>049-059>061-072>074-084-251800-
   CENTRAL IOWA
  
CITY           SKY/WX    TMP DP  RH WIND       PRES   REMARKS
AMES           CLOUDY    59  48  67 N24G37    29.85R                  
ANKENY *       CLOUDY    63  48  59 N24G35    29.83R                  
BOONE *        LGT RAIN  55  54  94 N22G30    29.85R                  
CHARITON *     SUNNY     66  54  63 N15G21    29.77S                  
DES MOINES     CLOUDY    62  48  60 N21G33    29.81R                  
GRINNELL*      MOSUNNY   65  52  61 N20G25    29.79S                  
KNOXVILLE *    SUNNY     66  55  68 N10G17    29.77F                  
MARSHALLTOWN   PTSUNNY   61  50  67 N24G35    29.81R                  
NEWTON *       MOSUNNY   64  54  68 N23G30    29.78F                  
PELLA *        MOSUNNY   69  51  52 N15G21    29.78F                  
PERRY *        CLOUDY    58  52  79 N23       29.87R                  
$$
 
IAZ004>006-015-016-023>025-035-036-251800-
   NORTH CENTRAL IOWA
  
CITY           SKY/WX    TMP DP  RH WIND       PRES   REMARKS
ALGONA *       CLOUDY    54  50  87 E7        29.86F                  
CLARION *      PTSUNNY   52  50  93 N16       29.90R                  
ESTHERVILLE    CLOUDY    58  48  69 NW10      29.88R                  
FORT DODGE *   RAIN      52  49  89 N13       29.91R                  
MASON CITY     LGT RAIN  51  49  92 N14       29.89R FOG              
FOREST CITY *  DRIZZLE   52  50  93 SE5       29.87F                  
IOWA FALLS *   DRIZZLE   56  51  83 N17G24    29.87R                  
$$

IAZ007>011-017>019-026>030-037>042-050>054-066-251800-
   NORTHEAST IOWA
  
CITY           SKY/WX    TMP DP  RH WIND       PRES   REMARKS
CEDAR RAPIDS   FAIR      64  54  69 N5        29.75F                  
CHARLES CITY * LGT RAIN  52  50  93 NW15      29.86R                  
CLINTON *      FAIR      65  54  67 CALM      29.77F                  
DECORAH *      FAIR      54  48  82 N15       29.81S                  
DUBUQUE        FAIR      66  54  65 VRB5      29.75F                  
MONTICELLO *   FAIR      66  54  63 CALM      29.75F                  
OELWEIN *      FAIR      59  50  72 NE23      29.78F                  
WATERLOO       PTSUNNY   62  48  60 N22G29    29.82R                  
$$
 
IAZ064-065-067-068-078-251800-
   EAST CENTRAL IOWA
  
CITY           SKY/WX    TMP DP  RH WIND       PRES   REMARKS
DAVENPORT        N/A     62  54  74 MISG      29.78F                  
IOWA CITY      CLOUDY    62  55  77 CALM      29.78F                  
MT. PLEASANT * MOSUNNY   63  59  88 SW3       29.78F                  
MUSCATINE *    FAIR      63  54  72 S5        29.78F                  
QUAD CITIES    FAIR      66  52  60 VRB3      29.76F                  
$$
 
IAZ062-063-075>077-085>089-095>099-251800-
   SOUTHEAST IOWA
  
CITY           SKY/WX    TMP DP  RH WIND       PRES   REMARKS
BURLINGTON     CLOUDY    58  53  84 CALM      29.79S                  
FAIRFIELD *    MOSUNNY   64  55  72 CALM      29.77R                  
KEOKUK *       CLOUDY    61  57  88 CALM      29.79F                  
OSKALOOSA *    FAIR      68  52  57 NW5       29.77S                  
CENTERVILLE *  FAIR      68  57  68 W8        29.78S                  
OTTUMWA        SUNNY     68  59  73 VRB6      29.76F                  
WASHINGTON *   PTSUNNY   64  61  88 VRB5G12   29.78S                  
$$

ABBREVIATIONS USED IN REMARKS
   TC - TEMPERATURES IN CELSIUS
  WCI - WIND CHILL INDEX
   HX - HEAT INDEX
  VSB - VISIBILITY  
$$